Location: La Silve
(44.2414°N, 5.8889°E)
Time: 13:13:41
(UTC+00:00)

Meteor 1-4 Rocket - Pass Details

Date: 01 December 2020
Orbit: 449 x 500 km, 81.2° (Epoch: 25 January)

Event Time Altitude Azimuth Distance (km) Brightness Sun altitude
Rises 17:28:15 0° 197° (SSW) 2,523 6.7 -15.5°
Reaches altitude 10° 17:30:23 10° 200° (SSW) 1,640 5.7 -15.9°
Maximum altitude 17:33:55 60° 281° (WNW) 541 3.0 -16.5°
Drops below altitude 10° 17:37:27 10° 3° (N) 1,625 5.0 -17.1°
Enters shadow 17:37:42 - 4° (N) 1,731 5.2 -17.2°
